Location: Grand Mazuras
(45.9128°N, 1.7636°E)
Time: 17:43:36
(UTC+00:00)

Cosmos 2151 - Pass Details

Date: 18 April 2021
Orbit: 581 x 600 km, 82.5° (Epoch: 11 May)

Event Time Altitude Azimuth Distance (km) Brightness Sun altitude
Rises 20:37:51 0° 354° (N) 2,861 7.2 -18.2°
Reaches altitude 10° 20:40:06 10° 358° (N) 1,953 6.2 -18.5°
Maximum altitude 20:44:22 59° 79° (ENE) 698 3.1 -19.1°
Enters shadow 20:45:18 47° 128° (SE) 801 3.1 -19.2°
